Regional Weather Roundup
Issued by NWS

Home | Current Version | Previous Version | Text Only | Print | Product List | Glossary Off
Versions: 1 2 3 4 5 6 7 8 9 10 11 12 13 14 15 16 17 18 19 20 21 22 23 24 25 26 27 28 29 30 31 32 33 34 35 36 37 38 39 40 41 42 43 44 45 46 47 48 49 50

000
ASUS43 KMKX 291300
RWRWI

WISCONSIN REGIONAL WEATHER ROUNDUP
NATIONAL WEATHER SERVICE MILWAUKEE/SULLIVAN WI
800 AM CDT FRI AUG 29 2014

NOTE: "FAIR" INDICATES FEW OR NO CLOUDS BELOW 12,000 FEET WITH NO
SIGNIFICANT WEATHER AND/OR OBSTRUCTIONS TO VISIBILITY.

WIZ001-002-006>008-014>016-023>028-291400-
NORTHWEST WISCONSIN

CITY           SKY/WX    TMP DP  RH WIND       PRES   REMARKS
SUPERIOR ARPT  DRIZZLE   62  61  97 E5        29.82F
ASHLAND        LGT RAIN  61  58  90 CALM      29.88R FOG
HAYWARD        CLOUDY    60  58  92 SE5       29.86F
SIREN          HVY RAIN  62  61  97 NE6       29.84R
RICE LAKE      CLOUDY    59  58  95 SE6       29.87R
LADYSMITH      CLOUDY    60  58  95 E7        29.88F
EAU CLAIRE     CLOUDY    62  62 100 CALM      29.86R
MENOMONIE      CLOUDY    62  61  98 SE6       29.86S
NEW RICHMOND   CLOUDY    64  64  99 SE8       29.83F FOG
OSCEOLA        CLOUDY    65  65 100 SE8       29.84S
$$

WIZ003>005-009-010-017-018-291400-
NORTH CENTRAL WISCONSIN

CITY           SKY/WX    TMP DP  RH WIND       PRES   REMARKS
WOODRUFF       RAIN      59  58  94 SE6       29.93F
RHINELANDER    LGT RAIN  57  57 100 SE8       29.95F
EAGLE RIVER    RAIN      57  57 100 CALM      29.95F
LAND O LAKES   RAIN      58  57  97 S5        29.96F
PHILLIPS       RAIN      57  57  99 E7        29.89F
TOMAHAWK       CLOUDY    57  56  97 SE5       29.94F FOG
MEDFORD        FOG       58  58 100 SE7       29.91F VSB 1/2
MERRILL        CLOUDY    59  59 100 E7        29.93F FOG
$$

WIZ029-030-035-036-043>047-291400-
CENTRAL WISCONSIN

CITY           SKY/WX    TMP DP  RH WIND       PRES   REMARKS
WAUSAU         CLOUDY    60  59  96 SE7       29.92F FOG
MOSINEE        NOT AVBL
MARSHFIELD     LGT RAIN  62  61  96 SE8       29.91F VSB 1
STEVENS POINT  CLOUDY    59  59  99 SE6       29.95F FOG
WAUPACA        CLOUDY    64  63  95 CALM      29.96S FOG
WAUTOMA        LGT RAIN  64  63  94 CALM      29.95S
WISC RAPIDS    CLOUDY    63  61  93 SE7       29.94F
CAMP DOUGLAS   CLOUDY    63  63 100 E3        29.92F
$$

WIZ011>013-019>022-031-037>040-048>050-291400-
NORTHEAST WISCONSIN

CITY           SKY/WX    TMP DP  RH WIND       PRES   REMARKS
ANTIGO         CLOUDY    57  57 100 SE8       29.96F FOG
STURGEON BAY   CLOUDY    61  57  88 SE7       29.98F
GREEN BAY      CLOUDY    64  63  96 E3        29.96F
MANITOWOC      NOT AVBL
APPLETON       CLOUDY    64  64 100 VRB3      29.95F
CLINTONVILLE   CLOUDY    61  59  94 CALM      29.95F FOG
OSHKOSH        CLOUDY    68  65  90 S3        29.95S
$$

WIZ032>034-041-042-053>061-291400-
SOUTHWEST WISCONSIN

CITY           SKY/WX    TMP DP  RH WIND       PRES   REMARKS
LA CROSSE      CLOUDY    67  64  90 E6        29.86F
SPARTA         CLOUDY    63  62  95 E3        29.90F
VIROQUA        CLOUDY    66  66 100 SE6       29.91F
BOSCOBEL       CLOUDY    72  68  87 CALM      29.91S FOG
PRAIRIE DU CHI MOSUNNY   69  66  93 E3        29.89S FOG
PLATTEVILLE    FAIR      67  66  97 CALM      29.94S
$$

WIZ056-057-062-063-064-067-068-291400-
SOUTH CENTRAL WISCONSIN

CITY           SKY/WX    TMP DP  RH WIND       PRES   REMARKS
BARABOO/DELLS  CLOUDY    66  64  93 S9        29.92F FOG
LONE ROCK      CLOUDY    72  66  81 E9        29.92S HAZE
WATERTOWN      PTSUNNY   66  66 100 CALM      29.96R FOG
MADISON        PTSUNNY   68  65  90 S7        29.95F FOG
MIDDLETON      CLOUDY    67  67  98 S3        29.95F
MONROE         CLOUDY    66  64  94 SE9       29.96R FOG
JANESVILLE     PTSUNNY   70  66  88 CALM      29.95F FOG
$$

WIZ051-052-058>065-066-070>072-291400-
SOUTHEAST WISCONSIN

CITY           SKY/WX    TMP DP  RH WIND       PRES   REMARKS
MILWAUKEE      PTSUNNY   72  66  81 S10       29.97S
WAUKESHA       PTSUNNY   68  64  88 S7        29.98S
MILWAUKEE/TIMM PTSUNNY   70  64  83 S8        29.98S
RACINE         LGT RAIN  72  67  84 S12G20    29.99S
BURLINGTON     PTSUNNY   66  65  99 S3        29.97S FOG
KENOSHA        CLOUDY    71  67  87 S7        29.99R
FOND DU LAC    CLOUDY    69  64  84 S13       29.95S
SHEBOYGAN      CLOUDY    69  66  90 S12       29.96S
WEST BEND      PTSUNNY   68  63  83 S7        29.97S
JUNEAU         PTSUNNY   66  64  93 S8        29.97S
$$

LSZ147-162-291400-
LAKE SUPERIOR

STATION/POSITION TIME  TEMP    WIND        PRES    WAVE
                       AIR SEA DIR/SP/G            HT/PER
                 (UTC) (F)     (DEG/KT/KT) (MB)    (FT/S)
W MID LAKE BUOY  1150   59 57  140/  4/  6 1012.8R   1
DEVILS ISLAND    1200   63     160/  7/  9 1011.6F
PORT WING        1200   64     140/  2/  5 1011.5S
SAXON HARBOR     1200   64     170/  2/ 10 1011.9F
$$

LMZ867-665-643>646-291400-
LAKE MICHIGAN

STATION/POSITION TIME  TEMP    WIND        PRES    WAVE
                       AIR SEA DIR/SP/G            HT/PER
                 (UTC) (F)     (DEG/KT/KT) (MB)    (FT/S)
N MID LAKE BUOY  1150   61 65  160/ 14/ 16 1016.5R   2/ 3
NORTHPORT PIER   1200   61     150/ 13/ 19 1015.6F
SISTER BAY       1226   60     140/ 10/ 14   N/A
KEWAUNEE LAKESHO 1200   65     160/ 11/ 12 1014.3R
SHEBOYGAN LAKESH 1200   68 69  170/ 15/ 16 1014.6S
ATWATER BUOY     1200   70     160/ 14/ 17 1015.7R
MILWAUKEE LAKESH 1200   70     160/ 10/ 11   N/A
S MID LAKE BUOY  1150   69 69  150/ 16/ 19 1015.6R   3/ 4
KENOSHA   LAKESH 1200   72     170/ 14/ 17 1014.9R
$$

TC  - TEMPERATURE IN CELSIUS
VSB - VISIBILITY IN STATUTE MILES
WCI - WIND CHILL INDEX
HX  - HEAT INDEX



USA.gov is the U.S. government's official web portal to all federal, state and local government web resources and services.